This demonstration page uses our WeatherBlox Daily Observations layout. Learn more.

Left ArrowRight Arrow

34.16533, -84.80231

Hourly Observations for March 8, 2021

Temp ( °F °C ) Dew Point ( °F °C ) Humidity (%) Winds ( mph kmh ) Pressure ( in mb ) Visibility ( mi km ) Precip ( " mm )
12:53 am 00:53 Clear 33 0.6 27 -2.8 78 78 Calm 30.45 1031 10 16 0.00 0.00
1:53 am 01:53 Clear 33 0.6 27 -2.8 78 78 Calm 30.47 1032 10 16 0.00 0.00
2:53 am 02:53 Clear 31 -0.6 26 -3.3 82 82 Calm 30.47 1032 10 16 0.00 0.00
3:53 am 03:53 Clear 31 -0.6 26 -3.3 82 82 Calm 30.47 1032 10 16 0.00 0.00
4:53 am 04:53 Clear 30 -1.1 25 -3.9 82 82 Calm 30.48 1032 10 16 0.00 0.00
5:53 am 05:53 Clear 28 -2.2 24 -4.4 85 85 Calm 30.50 1033 10 16 0.00 0.00
6:53 am 06:53 Clear 28 -2.2 24 -4.4 85 85 Calm 30.53 1034 9 14 0.00 0.00
7:53 am 07:53 Sunny with Mist and Fog 32 0 28 -2.2 85 85 Calm 30.55 1035 6 10 0.00 0.00
8:53 am 08:53 Sunny 40 4.4 30 -1.1 68 68 Calm 30.57 1035 9 14 0.00 0.00
9:53 am 09:53 Sunny 47 8.3 30 -1.1 52 52 Calm 30.58 1036 10 16 0.00 0.00
10:53 am 10:53 Sunny 54 12.2 29 -1.7 38 38 Calm 30.58 1035 10 16 0.00 0.00
11:53 am 11:53 Sunny 60 15.6 23 -5 24 24 VRB 3 6 30.55 1035 10 16 0.00 0.00
12:53 pm 12:53 Sunny 64 17.8 14 -10 14 14 NNE 6 9 30.53 1034 10 16 0.00 0.00
1:53 pm 13:53 Sunny 66 18.9 15 -9.4 14 14 VRB 3 6 30.50 1033 10 16 0.00 0.00
2:53 pm 14:53 Sunny 67 19.4 16 -8.9 14 14 Calm 30.48 1032 10 16 0.00 0.00
3:53 pm 15:53 Sunny 70 21.1 18 -7.8 14 14 Calm 30.46 1032 10 16 0.00 0.00
4:53 pm 16:53 Sunny 70 21.1 17 -8.3 13 13 Calm 30.46 1031 10 16 0.00 0.00
5:53 pm 17:53 Sunny 67 19.4 17 -8.3 15 15 N 3 6 30.46 1031 10 16 0.00 0.00
6:53 pm 18:53 Clear 56 13.3 27 -2.8 33 33 Calm 30.47 1032 10 16 0.00 0.00
7:53 pm 19:53 Clear 48 8.9 28 -2.2 46 46 Calm 30.48 1032 10 16 0.00 0.00
8:53 pm 20:53 Clear 45 7.2 28 -2.2 52 52 Calm 30.48 1032 10 16 0.00 0.00
9:53 pm 21:53 Clear 43 6.1 28 -2.2 56 56 Calm 30.49 1033 10 16 0.00 0.00
10:53 pm 22:53 Clear 40 4.4 28 -2.2 63 63 Calm 30.49 1033 10 16 0.00 0.00
11:53 pm 23:53 Clear 37 2.8 28 -2.2 70 70 Calm 30.49 1032 10 16 0.00 0.00

Powered by AerisWeather